Weather History for Wakefield, VA

Change the Weather History Date:

Sunday, April 7, 2013

  Actual Average (KJGG) Record (KJGG)
Temperature  
Mean Temperature 52 °F -  
Max Temperature 71 °F 66 °F 88 °F (1991)
Min Temperature 32 °F 39 °F 22 °F (1982)
Degree Days  
Heating Degree Days 14    
Growing Degree Days 2 (Base 50)    
Moisture  
Dew Point 38 °F    
Average Humidity 60    
Maximum Humidity 92    
Minimum Humidity 33    
Precipitation  
Precipitation 0.00 in - - ()
Sea Level Pressure  
Sea Level Pressure 30.22 in    
Wind  
Wind Speed 3 mph (SSW)    
Max Wind Speed 13 mph    
Max Gust Speed 22 mph    
Visibility 10 miles    
Events      
Averages and records for this station are not official NWS values.
T = Trace of Precipitation, MM = Missing Value Source: NWS Daily Summary

Daily Weather History Graph

Daily Weather History Graph

Search for Another Location

Airport:

Trip Planner

Search our weather history database for the weather conditions in past years. The results will help you decide how hot, cold, wet, or windy it might be!

Date:

Astronomy

Apr. 07, 2013 Rise Set
Actual Time 6:44 AM EDT 7:35 PM EDT
Civil Twilight 6:18 AM EDT 8:02 PM EDT
Nautical Twilight 5:47 AM EDT 8:33 PM EDT
Astronomical Twilight 5:14 AM EDT 9:06 PM EDT
Moon 4:57 AM EDT (4/7) 5:08 PM EDT (4/7)
Length of Visible Light 13h 44m
Length of Day
12h 51m
Waning Crescent, 8% of the Moon is Illuminated
Apr 7
Waning Crescent
Apr 10
New
Apr 18
First Quarter
Apr 25
Full
May 2
Last Quarter

Hourly Weather History & Observations

Time (EDT) Temp. Windchill Dew Point Humidity Pressure Visibility Wind Dir Wind Speed Gust Speed Precip Events Conditions
12:54 AM 39.0 °F - 33.1 °F 79% 30.32 in 10.0 mi Calm Calm - N/A   Clear
1:54 AM 37.0 °F - 32.0 °F 82% 30.31 in 10.0 mi Calm Calm - N/A   Clear
2:54 AM 37.0 °F - 33.1 °F 86% 30.27 in 10.0 mi Calm Calm - N/A   Clear
3:54 AM 35.1 °F - 30.9 °F 85% 30.27 in 10.0 mi Calm Calm - N/A   Clear
4:54 AM 33.1 °F - 30.0 °F 89% 30.29 in 10.0 mi Calm Calm - N/A   Clear
5:54 AM 32.0 °F - 30.0 °F 92% 30.29 in 10.0 mi Calm Calm - N/A   Clear
6:54 AM 32.0 °F - 30.0 °F 92% 30.31 in 10.0 mi Calm Calm - N/A   Clear
7:54 AM 37.0 °F - 33.1 °F 86% 30.32 in 10.0 mi Calm Calm - N/A   Clear
8:54 AM 44.1 °F 41.5 °F 37.9 °F 79% 30.31 in 10.0 mi South 4.6 mph - N/A   Clear
9:54 AM 52.0 °F - 41.0 °F 66% 30.29 in 10.0 mi Variable 5.8 mph - N/A   Clear
10:54 AM 57.0 °F - 37.9 °F 49% 30.29 in 10.0 mi South 8.1 mph - N/A   Clear
11:54 AM 60.1 °F - 37.9 °F 44% 30.27 in 10.0 mi South 5.8 mph - N/A   Clear
12:54 PM 64.0 °F - 39.9 °F 41% 30.24 in 10.0 mi SW 8.1 mph - N/A   Clear
1:54 PM 66.0 °F - 41.0 °F 40% 30.19 in 10.0 mi South 8.1 mph 17.3 mph N/A   Clear
2:54 PM 68.0 °F - 39.9 °F 36% 30.15 in 10.0 mi SSW 12.7 mph 21.9 mph N/A   Clear
3:54 PM 70.0 °F - 41.0 °F 35% 30.11 in 10.0 mi SW 11.5 mph 21.9 mph N/A   Clear
4:54 PM 71.1 °F - 41.0 °F 34% 30.12 in 10.0 mi SW 11.5 mph 19.6 mph N/A   Clear
5:54 PM 70.0 °F - 39.9 °F 33% 30.12 in 10.0 mi SW 8.1 mph - N/A   Clear
6:54 PM 68.0 °F - 41.0 °F 37% 30.11 in 10.0 mi Variable 5.8 mph - N/A   Clear
7:54 PM 64.9 °F - 41.0 °F 42% 30.09 in 10.0 mi South 5.8 mph - N/A   Clear
8:54 PM 63.0 °F - 41.0 °F 45% 30.11 in 10.0 mi SSW 4.6 mph - N/A   Clear
9:54 PM 60.1 °F - 42.1 °F 51% 30.13 in 10.0 mi South 4.6 mph - N/A   Clear
10:54 PM 60.1 °F - 42.1 °F 51% 30.13 in 10.0 mi South 6.9 mph - N/A   Clear
11:54 PM 57.9 °F - 46.9 °F 67% 30.13 in 10.0 mi South 5.8 mph - N/A   Clear